Location: Nitra
(0.0000°N, 18.0833°E)
Time: 08:41:13
(UTC+01:00)

MINOTAUR IV R/B - Pass Details

Date: 25 September 2022
Orbit: 624 x 637 km, 72.0° (Epoch: 20 November)

Event Time Altitude Azimuth Distance (km) Brightness Sun altitude
Rises 19:50:48 0° 192° (SSW) 2,934 8.2 -17.9°
Reaches altitude 10° 19:53:05 10° 191° (S) 2,024 7.3 -18.4°
Maximum altitude 19:57:37 79° 105° (ESE) 651 4.5 -19.6°
Enters shadow 20:01:29 14° 18° (NNE) 1,749 6.7 -20.5°
